Total_Precipitation_Accumulation
0.00 0.00 0.00 0.00 0.00 0.00 0.00 0.00 0.00 0.00 0.00 0.00 0.00 0.00 0.00 0.00 0.00 0.00 0.00 0.00 0.00 0.00 0.00 0.01 0.01 0.00 0.00 0.02 0.03 0.03 0.05 0.08 0.12 0.12 0.13 0.15 0.14 0.14 0.10 0.08 0.08 0.02 0.06 0.08 0.08 0.07 0.24 0.30 0.30 0.34 0.23 0.16 0.16 0.16 0.27 0.27 0.27 0.19 0.25 0.34 0.34 0.44 0.55 0.58 0.58 0.59 0.65 0.68 0.51 0.51 0.35 0.37 0.33 0.33 0.32 0.29 0.21 0.21 0.21 0.17 0.17 0.28 0.41 0.52 0.52 0.72
0.00 0.00 0.00 0.00 0.00 0.00 0.00 0.00 0.00 0.00 0.00 0.00 0.00 0.00 0.00 0.00 0.00 0.00 0.00 0.00 0.00 0.00 0.01 0.01 0.01 0.01 0.01 0.02 0.03 0.03 0.03 0.05 0.12 0.12 0.15 0.19 0.19 0.19 0.12 0.11 0.11 0.06 0.03 0.05 0.05 0.10 0.19 0.31 0.31 0.32 0.28 0.18 0.13 0.13 0.16 0.26 0.26 0.27 0.24 0.33 0.33 0.47 0.56 0.61 0.61 0.63 0.65 0.69 0.64 0.64 0.54 0.51 0.44 0.44 0.46 0.35 0.25 0.25 0.24 0.20 0.20 0.27 0.37 0.41 0.41 0.57
0.00 0.00 0.00 0.00 0.00 0.00 0.00 0.00 0.00 0.00 0.00 0.00 0.00 0.00 0.00 0.00 0.00 0.00 0.00 0.00 0.00 0.00 0.00 0.00 0.00 0.01 0.03 0.03 0.02 0.02 0.04 0.05 0.08 0.08 0.12 0.15 0.22 0.22 0.19 0.18 0.18 0.09 0.04 0.07 0.07 0.11 0.10 0.12 0.12 0.24 0.28 0.20 0.10 0.10 0.13 0.25 0.25 0.31 0.31 0.25 0.25 0.25 0.38 0.59 0.59 0.70 0.64 0.64 0.66 0.66 0.58 0.59 0.54 0.54 0.58 0.52 0.43 0.43 0.44 0.33 0.33 0.29 0.29 0.33 0.33 0.44
0.00 0.00 0.00 0.00 0.00 0.00 0.00 0.00 0.00 0.00 0.00 0.00 0.00 0.00 0.00 0.00 0.00 0.00 0.00 0.00 0.00 0.00 0.00 0.00 0.00 0.01 0.01 0.05 0.05 0.05 0.04 0.07 0.08 0.08 0.13 0.17 0.20 0.20 0.23 0.27 0.27 0.16 0.08 0.13 0.13 0.11 0.10 0.13 0.13 0.19 0.25 0.24 0.25 0.25 0.15 0.23 0.23 0.34 0.39 0.27 0.27 0.32 0.32 0.54 0.54 0.70 0.78 0.70 0.73 0.73 0.65 0.66 0.58 0.58 0.62 0.58 0.53 0.53 0.53 0.42 0.42 0.38 0.34 0.38 0.38 0.37
0.00 0.00 0.00 0.00 0.00 0.00 0.00 0.00 0.00 0.00 0.00 0.00 0.00 0.00 0.00 0.00 0.00 0.00 0.00 0.00 0.00 0.00 0.00 0.00 0.00 0.00 0.00 0.03 0.07 0.07 0.07 0.10 0.11 0.11 0.14 0.20 0.21 0.21 0.25 0.32 0.32 0.29 0.21 0.21 0.21 0.13 0.12 0.15 0.15 0.16 0.25 0.24 0.25 0.25 0.25 0.23 0.23 0.22 0.31 0.40 0.40 0.32 0.31 0.43 0.43 0.62 0.88 0.86 0.86 0.86 0.72 0.71 0.68 0.68 0.68 0.71 0.63 0.63 0.64 0.60 0.60 0.56 0.44 0.38 0.38 0.41
0.00 0.00 0.00 0.00 0.00 0.00 0.00 0.00 0.00 0.00 0.00 0.00 0.00 0.00 0.00 0.00 0.00 0.00 0.00 0.00 0.00 0.00 0.00 0.00 0.00 0.00 0.00 0.01 0.07 0.07 0.10 0.11 0.13 0.13 0.14 0.23 0.27 0.27 0.29 0.36 0.36 0.37 0.33 0.32 0.32 0.22 0.20 0.20 0.20 0.18 0.22 0.28 0.25 0.25 0.27 0.29 0.29 0.27 0.28 0.35 0.35 0.38 0.34 0.32 0.32 0.38 0.49 0.98 0.98 0.98 0.82 0.82 0.76 0.76 0.75 0.75 0.72 0.72 0.80 0.68 0.68 0.71 0.64 0.60 0.60 0.61
0.00 0.00 0.00 0.00 0.00 0.00 0.00 0.00 0.00 0.00 0.00 0.00 0.00 0.00 0.00 0.00 0.00 0.00 0.00 0.00 0.00 0.00 0.00 0.00 0.00 0.00 0.00 0.00 0.05 0.05 0.10 0.12 0.13 0.13 0.17 0.23 0.24 0.24 0.27 0.31 0.31 0.42 0.41 0.43 0.43 0.29 0.21 0.20 0.20 0.22 0.20 0.21 0.27 0.27 0.28 0.34 0.34 0.33 0.31 0.32 0.32 0.39 0.38 0.39 0.39 0.40 0.45 0.66 0.82 0.82 1.02 0.98 0.88 0.88 0.80 0.80 0.79 0.79 0.83 0.83 0.83 0.80 0.70 0.65 0.65 0.68
0.00 0.00 0.00 0.00 0.00 0.00 0.00 0.00 0.00 0.00 0.00 0.00 0.00 0.00 0.00 0.00 0.00 0.00 0.00 0.00 0.00 0.00 0.00 0.00 0.00 0.00 0.00 0.00 0.00 0.00 0.00 0.02 0.09 0.09 0.15 0.21 0.23 0.23 0.24 0.24 0.24 0.29 0.36 0.41 0.41 0.50 0.54 0.53 0.53 0.27 0.21 0.19 0.17 0.17 0.16 0.24 0.24 0.31 0.39 0.39 0.39 0.32 0.30 0.37 0.37 0.39 0.47 0.51 0.61 0.61 0.68 0.86 0.99 0.99 0.94 0.95 0.86 0.86 0.83 0.73 0.73 0.83 0.83 0.81 0.81 0.76
0.00 0.00 0.00 0.00 0.00 0.00 0.00 0.00 0.00 0.00 0.00 0.00 0.00 0.00 0.00 0.00 0.00 0.00 0.00 0.00 0.00 0.00 0.00 0.00 0.00 0.00 0.00 0.00 0.00 0.00 0.00 0.00 0.04 0.04 0.12 0.14 0.20 0.20 0.22 0.24 0.24 0.27 0.32 0.37 0.37 0.47 0.57 0.63 0.63 0.49 0.24 0.23 0.20 0.20 0.16 0.13 0.13 0.21 0.31 0.37 0.37 0.34 0.31 0.30 0.30 0.33 0.40 0.52 0.60 0.60 0.72 0.87 0.88 0.88 0.94 1.01 1.06 1.06 1.04 0.91 0.91 0.78 0.78 0.81 0.81 0.80
0.00 0.00 0.00 0.00 0.00 0.00 0.00 0.00 0.00 0.00 0.00 0.00 0.00 0.00 0.00 0.00 0.00 0.00 0.00 0.00 0.00 0.00 0.00 0.00 0.00 0.00 0.00 0.00 0.00 0.00 0.00 0.00 0.00 0.00 0.04 0.05 0.14 0.14 0.20 0.19 0.19 0.22 0.25 0.25 0.25 0.33 0.54 0.57 0.57 0.64 0.39 0.35 0.24 0.24 0.21 0.18 0.18 0.20 0.32 0.31 0.31 0.32 0.33 0.31 0.31 0.30 0.38 0.48 0.53 0.53 0.76 0.87 0.92 0.92 0.92 0.99 1.08 1.08 1.10 0.96 0.96 0.85 0.83 0.83 0.83 0.86
0.00 0.00 0.00 0.00 0.00 0.00 0.00 0.00 0.00 0.00 0.00 0.00 0.00 0.00 0.00 0.00 0.00 0.00 0.00 0.00 0.00 0.00 0.00 0.00 0.00 0.00 0.00 0.00 0.00 0.00 0.00 0.00 0.00 0.00 0.00 0.01 0.05 0.05 0.12 0.11 0.11 0.18 0.21 0.18 0.18 0.26 0.35 0.37 0.37 0.50 0.61 0.46 0.30 0.30 0.26 0.19 0.19 0.22 0.34 0.35 0.35 0.33 0.32 0.32 0.32 0.30 0.29 0.35 0.39 0.39 0.44 0.64 0.79 0.79 0.95 0.94 1.04 1.04 1.08 1.07 1.07 0.94 0.92 0.87 0.87 0.92
0.00 0.00 0.00 0.00 0.00 0.00 0.00 0.00 0.00 0.00 0.00 0.00 0.00 0.00 0.00 0.00 0.00 0.00 0.00 0.00 0.00 0.00 0.00 0.00 0.00 0.00 0.00 0.00 0.00 0.00 0.00 0.00 0.00 0.00 0.00 0.00 0.01 0.01 0.02 0.06 0.06 0.11 0.14 0.13 0.13 0.17 0.27 0.27 0.27 0.40 0.52 0.55 0.56 0.56 0.37 0.31 0.31 0.24 0.25 0.41 0.41 0.38 0.35 0.29 0.29 0.31 0.34 0.34 0.38 0.38 0.45 0.55 0.68 0.68 0.89 0.92 0.99 0.99 0.98 1.00 1.00 1.05 0.99 0.99 0.99 0.89
0.00 0.00 0.00 0.00 0.00 0.00 0.00 0.00 0.00 0.00 0.00 0.00 0.00 0.00 0.00 0.00 0.00 0.00 0.00 0.00 0.00 0.00 0.00 0.00 0.00 0.00 0.00 0.00 0.00 0.00 0.01 0.01 0.00 0.00 0.00 0.00 0.00 0.00 0.02 0.04 0.04 0.07 0.09 0.10 0.10 0.10 0.18 0.18 0.18 0.30 0.44 0.46 0.54 0.54 0.45 0.38 0.38 0.28 0.26 0.30 0.30 0.42 0.44 0.41 0.41 0.30 0.29 0.32 0.34 0.34 0.39 0.51 0.57 0.57 0.75 0.81 0.93 0.93 0.99 1.02 1.02 1.03 0.96 0.91 0.91 0.87
0.00 0.00 0.00 0.00 0.00 0.00 0.00 0.00 0.00 0.00 0.00 0.00 0.00 0.00 0.00 0.00 0.00 0.00 0.00 0.00 0.00 0.00 0.00 0.00 0.00 0.00 0.00 0.00 0.00 0.00 0.00 0.00 0.01 0.01 0.00 0.00 0.00 0.00 0.02 0.04 0.04 0.07 0.09 0.11 0.11 0.10 0.11 0.13 0.13 0.14 0.20 0.24 0.48 0.48 0.51 0.47 0.47 0.35 0.32 0.29 0.29 0.35 0.43 0.45 0.45 0.35 0.28 0.31 0.33 0.33 0.30 0.34 0.42 0.42 0.55 0.64 0.75 0.75 0.86 0.88 0.88 0.96 1.02 1.07 1.07 0.92
0.00 0.00 0.00 0.00 0.00 0.00 0.00 0.00 0.00 0.00 0.00 0.00 0.00 0.00 0.00 0.00 0.00 0.00 0.00 0.00 0.00 0.00 0.00 0.00 0.00 0.00 0.00 0.00 0.00 0.00 0.00 0.00 0.00 0.00 0.01 0.01 0.01 0.01 0.01 0.04 0.04 0.07 0.09 0.10 0.10 0.10 0.11 0.13 0.13 0.15 0.17 0.21 0.28 0.28 0.39 0.42 0.42 0.44 0.38 0.35 0.35 0.29 0.28 0.46 0.46 0.40 0.28 0.28 0.28 0.28 0.31 0.33 0.38 0.38 0.50 0.61 0.71 0.71 0.81 0.85 0.85 0.93 0.95 1.03 1.03 1.01
0.00 0.00 0.00 0.00 0.00 0.00 0.00 0.00 0.00 0.00 0.00 0.00 0.00 0.00 0.00 0.00 0.00 0.00 0.00 0.00 0.00 0.00 0.00 0.00 0.00 0.00 0.00 0.00 0.00 0.00 0.00 0.00 0.00 0.00 0.00 0.01 0.00 0.00 0.01 0.02 0.02 0.03 0.05 0.08 0.08 0.10 0.11 0.12 0.12 0.15 0.17 0.20 0.25 0.25 0.33 0.34 0.34 0.42 0.39 0.29 0.29 0.29 0.28 0.33 0.33 0.44 0.44 0.36 0.31 0.31 0.25 0.26 0.26 0.26 0.36 0.39 0.50 0.50 0.75 0.80 0.80 0.92 0.91 0.97 0.97 1.02
0.00 0.00 0.00 0.00 0.00 0.00 0.00 0.00 0.00 0.00 0.00 0.00 0.00 0.00 0.00 0.00 0.00 0.00 0.00 0.00 0.00 0.00 0.00 0.00 0.00 0.00 0.00 0.00 0.00 0.00 0.00 0.00 0.00 0.00 0.00 0.01 0.00 0.00 0.01 0.02 0.02 0.04 0.06 0.08 0.08 0.10 0.10 0.11 0.11 0.11 0.13 0.14 0.17 0.17 0.23 0.31 0.31 0.37 0.39 0.33 0.33 0.25 0.22 0.29 0.29 0.38 0.44 0.44 0.39 0.39 0.26 0.24 0.24 0.24 0.26 0.39 0.46 0.46 0.62 0.64 0.64 0.68 0.74 0.85 0.85 0.87
0.00 0.00 0.00 0.00 0.00 0.00 0.00 0.00 0.00 0.00 0.00 0.00 0.00 0.00 0.00 0.00 0.00 0.00 0.00 0.00 0.00 0.00 0.00 0.00 0.00 0.00 0.00 0.00 0.00 0.00 0.00 0.00 0.00 0.00 0.00 0.00 0.00 0.00 0.00 0.01 0.01 0.02 0.05 0.07 0.07 0.08 0.10 0.09 0.09 0.11 0.12 0.12 0.15 0.15 0.19 0.20 0.20 0.27 0.33 0.35 0.35 0.37 0.33 0.24 0.24 0.23 0.25 0.47 0.39 0.39 0.32 0.23 0.23 0.23 0.25 0.28 0.34 0.34 0.53 0.60 0.60 0.60 0.61 0.79 0.79 0.82
0.00 0.00 0.00 0.00 0.00 0.00 0.00 0.00 0.00 0.00 0.00 0.00 0.00 0.00 0.00 0.00 0.00 0.00 0.00 0.00 0.00 0.00 0.00 0.00 0.00 0.00 0.00 0.00 0.00 0.00 0.00 0.00 0.00 0.00 0.00 0.00 0.00 0.00 0.00 0.00 0.00 0.00 0.01 0.02 0.02 0.05 0.07 0.07 0.07 0.08 0.10 0.10 0.12 0.12 0.15 0.18 0.18 0.23 0.29 0.33 0.33 0.38 0.35 0.28 0.28 0.23 0.25 0.29 0.41 0.41 0.44 0.39 0.34 0.34 0.25 0.23 0.22 0.22 0.26 0.31 0.31 0.49 0.61 0.59 0.59 0.65
0.00 0.00 0.00 0.00 0.00 0.00 0.00 0.00 0.00 0.00 0.00 0.00 0.00 0.00 0.00 0.00 0.00 0.00 0.00 0.00 0.00 0.00 0.00 0.00 0.00 0.00 0.00 0.00 0.00 0.00 0.00 0.00 0.00 0.00 0.00 0.00 0.00 0.00 0.00 0.00 0.00 0.00 0.01 0.01 0.01 0.03 0.05 0.04 0.04 0.05 0.05 0.07 0.09 0.09 0.11 0.12 0.12 0.22 0.28 0.34 0.34 0.37 0.39 0.33 0.33 0.28 0.28 0.27 0.33 0.33 0.38 0.44 0.41 0.41 0.32 0.25 0.25 0.25 0.23 0.28 0.28 0.38 0.54 0.57 0.57 0.58
0.00 0.00 0.00 0.00 0.00 0.00 0.00 0.00 0.00 0.00 0.00 0.00 0.00 0.00 0.00 0.00 0.00 0.00 0.00 0.00 0.00 0.00 0.00 0.00 0.00 0.00 0.00 0.00 0.00 0.00 0.00 0.00 0.00 0.00 0.00 0.00 0.00 0.00 0.00 0.00 0.00 0.00 0.00 0.00 0.00 0.01 0.03 0.03 0.03 0.05 0.06 0.09 0.08 0.08 0.09 0.10 0.10 0.13 0.19 0.23 0.23 0.34 0.39 0.44 0.44 0.37 0.35 0.31 0.29 0.29 0.33 0.36 0.40 0.40 0.45 0.40 0.40 0.40 0.31 0.28 0.28 0.34 0.43 0.47 0.47 0.59
0.00 0.00 0.00 0.00 0.00 0.00 0.00 0.00 0.00 0.00 0.00 0.00 0.00 0.00 0.00 0.00 0.00 0.00 0.00 0.00 0.00 0.00 0.00 0.00 0.00 0.00 0.00 0.00 0.00 0.00 0.00 0.00 0.00 0.00 0.00 0.00 0.00 0.00 0.00 0.00 0.00 0.00 0.00 0.00 0.00 0.00 0.01 0.02 0.02 0.04 0.07 0.11 0.12 0.12 0.09 0.10 0.10 0.11 0.15 0.17 0.17 0.29 0.39 0.44 0.44 0.46 0.44 0.35 0.32 0.32 0.36 0.38 0.42 0.42 0.44 0.45 0.45 0.45 0.41 0.43 0.43 0.36 0.32 0.36 0.36 0.42
0.00 0.00 0.00 0.00 0.00 0.00 0.00 0.00 0.00 0.00 0.00 0.00 0.00 0.00 0.00 0.00 0.00 0.00 0.00 0.00 0.00 0.00 0.00 0.00 0.00 0.00 0.00 0.00 0.00 0.00 0.00 0.00 0.00 0.00 0.00 0.00 0.00 0.00 0.00 0.00 0.00 0.00 0.00 0.00 0.00 0.00 0.00 0.00 0.00 0.01 0.02 0.03 0.09 0.09 0.15 0.18 0.18 0.14 0.11 0.11 0.11 0.21 0.34 0.36 0.36 0.46 0.48 0.42 0.36 0.36 0.40 0.41 0.47 0.47 0.46 0.46 0.47 0.47 0.44 0.43 0.43 0.42 0.38 0.37 0.37 0.41
0.00 0.00 0.00 0.00 0.00 0.00 0.00 0.00 0.00 0.00 0.00 0.00 0.00 0.00 0.00 0.00 0.00 0.00 0.00 0.00 0.00 0.02 0.01 0.01 0.01 0.01 0.00 0.00 0.00 0.00 0.00 0.00 0.00 0.00 0.00 0.00 0.00 0.00 0.00 0.00 0.00 0.00 0.00 0.00 0.00 0.00 0.00 0.00 0.00 0.00 0.01 0.01 0.06 0.06 0.13 0.18 0.18 0.21 0.15 0.15 0.15 0.12 0.16 0.17 0.17 0.26 0.28 0.40 0.49 0.49 0.49 0.43 0.45 0.45 0.51 0.52 0.55 0.55 0.49 0.48 0.48 0.49 0.45 0.44 0.44 0.42
0.00 0.00 0.00 0.00 0.00 0.00 0.00 0.00 0.00 0.00 0.00 0.00 0.00 0.00 0.00 0.00 0.00 0.00 0.01 0.01 0.01 0.01 0.01 0.01 0.01 0.01 0.00 0.00 0.00 0.00 0.00 0.00 0.00 0.00 0.00 0.00 0.00 0.00 0.00 0.00 0.00 0.00 0.00 0.00 0.00 0.00 0.00 0.00 0.00 0.00 0.00 0.00 0.03 0.03 0.09 0.14 0.14 0.23 0.22 0.23 0.23 0.15 0.13 0.14 0.14 0.19 0.21 0.32 0.42 0.42 0.47 0.50 0.47 0.47 0.52 0.57 0.61 0.61 0.54 0.50 0.50 0.51 0.49 0.47 0.47 0.43
0.00 0.00 0.00 0.00 0.00 0.00 0.00 0.00 0.00 0.00 0.00 0.00 0.00 0.00 0.00 0.00 0.00 0.00 0.01 0.01 0.01 0.01 0.01 0.01 0.01 0.01 0.00 0.00 0.00 0.00 0.00 0.00 0.00 0.00 0.00 0.00 0.00 0.00 0.00 0.00 0.00 0.00 0.00 0.00 0.00 0.00 0.00 0.00 0.00 0.00 0.00 0.00 0.00 0.00 0.01 0.05 0.05 0.12 0.21 0.26 0.26 0.30 0.21 0.20 0.20 0.14 0.14 0.17 0.24 0.24 0.28 0.40 0.51 0.51 0.56 0.56 0.60 0.60 0.62 0.62 0.62 0.59 0.54 0.57 0.57 0.52
0.00 0.00 0.00 0.00 0.00 0.00 0.00 0.00 0.00 0.00 0.00 0.00 0.00 0.00 0.00 0.00 0.01 0.01 0.01 0.01 0.01 0.00 0.01 0.01 0.01 0.01 0.00 0.00 0.00 0.00 0.00 0.00 0.00 0.00 0.00 0.00 0.00 0.00 0.00 0.00 0.00 0.00 0.00 0.00 0.00 0.00 0.00 0.00 0.00 0.00 0.00 0.00 0.00 0.00 0.01 0.03 0.03 0.08 0.17 0.22 0.22 0.30 0.29 0.27 0.27 0.18 0.16 0.15 0.18 0.18 0.21 0.32 0.46 0.46 0.53 0.60 0.62 0.62 0.61 0.67 0.67 0.67 0.60 0.73 0.73 0.66
0.00 0.00 0.00 0.00 0.00 0.00 0.00 0.00 0.00 0.00 0.00 0.00 0.00 0.00 0.00 0.01 0.01 0.01 0.01 0.00 0.00 0.00 0.01 0.01 0.01 0.01 0.01 0.00 0.00 0.00 0.00 0.00 0.00 0.00 0.00 0.00 0.00 0.00 0.00 0.00 0.00 0.00 0.00 0.00 0.00 0.00 0.00 0.00 0.00 0.00 0.00 0.00 0.00 0.00 0.01 0.02 0.02 0.05 0.12 0.18 0.18 0.28 0.32 0.30 0.30 0.24 0.16 0.15 0.15 0.15 0.17 0.25 0.39 0.39 0.47 0.58 0.61 0.61 0.63 0.64 0.64 0.73 0.73 0.90 0.90 0.81
0.00 0.00 0.00 0.00 0.00 0.00 0.00 0.00 0.00 0.00 0.00 0.00 0.00 0.00 0.00 0.00 0.01 0.01 0.01 0.00 0.00 0.01 0.01 0.01 0.01 0.01 0.01 0.01 0.00 0.00 0.00 0.00 0.00 0.00 0.00 0.00 0.00 0.00 0.00 0.00 0.00 0.00 0.00 0.01 0.01 0.00 0.00 0.00 0.00 0.00 0.00 0.00 0.00 0.00 0.00 0.00 0.00 0.01 0.04 0.06 0.06 0.14 0.23 0.29 0.29 0.33 0.28 0.26 0.19 0.19 0.19 0.16 0.18 0.18 0.21 0.37 0.46 0.46 0.60 0.67 0.67 0.80 0.84 0.92 0.92 0.97
0.00 0.00 0.00 0.00 0.00 0.00 0.00 0.00 0.00 0.00 0.00 0.00 0.00 0.00 0.00 0.00 0.00 0.00 0.00 0.00 0.00 0.00 0.01 0.01 0.01 0.01 0.01 0.01 0.00 0.00 0.00 0.00 0.00 0.00 0.00 0.00 0.00 0.00 0.00 0.00 0.00 0.00 0.01 0.00 0.00 0.00 0.00 0.00 0.00 0.00 0.00 0.00 0.00 0.00 0.00 0.00 0.00 0.01 0.02 0.04 0.04 0.10 0.19 0.23 0.23 0.30 0.31 0.27 0.24 0.24 0.23 0.18 0.16 0.16 0.19 0.28 0.46 0.46 0.55 0.69 0.69 0.87 0.97 1.01 1.01 0.95
0.00 0.00 0.00 0.00 0.00 0.00 0.00 0.00 0.00 0.00 0.00 0.00 0.00 0.00 0.00 0.00 0.00 0.00 0.00 0.00 0.00 0.00 0.01 0.01 0.01 0.01 0.01 0.01 0.01 0.01 0.01 0.00 0.00 0.00 0.00 0.00 0.00 0.00 0.00 0.00 0.00 0.00 0.00 0.01 0.01 0.02 0.00 0.00 0.00 0.00 0.00 0.00 0.00 0.00 0.00 0.00 0.00 0.00 0.01 0.02 0.02 0.06 0.14 0.18 0.18 0.27 0.30 0.29 0.26 0.26 0.25 0.22 0.19 0.19 0.19 0.24 0.24 0.24 0.31 0.47 0.47 0.66 0.82 0.93 0.93 0.88
0.00 0.00 0.00 0.00 0.00 0.00 0.00 0.00 0.00 0.00 0.00 0.00 0.00 0.00 0.00 0.00 0.00 0.00 0.00 0.00 0.00 0.00 0.01 0.01 0.01 0.01 0.01 0.02 0.02 0.02 0.01 0.00 0.00 0.00 0.00 0.00 0.01 0.01 0.00 0.01 0.01 0.01 0.01 0.01 0.01 0.04 0.03 0.01 0.01 0.00 0.00 0.00 0.00 0.00 0.00 0.00 0.00 0.00 0.00 0.00 0.00 0.00 0.01 0.02 0.02 0.07 0.17 0.21 0.29 0.29 0.31 0.31 0.28 0.28 0.28 0.28 0.28 0.28 0.36 0.43 0.43 0.58 0.70 0.71 0.71 0.56
0.00 0.00 0.00 0.00 0.00 0.00 0.00 0.00 0.00 0.00 0.00 0.00 0.00 0.00 0.00 0.00 0.00 0.00 0.00 0.00 0.00 0.00 0.00 0.01 0.01 0.01 0.01 0.01 0.02 0.02 0.01 0.01 0.00 0.00 0.00 0.00 0.01 0.01 0.02 0.02 0.02 0.02 0.01 0.01 0.01 0.03 0.04 0.02 0.02 0.01 0.00 0.00 0.00 0.00 0.00 0.00 0.00 0.00 0.00 0.00 0.00 0.00 0.00 0.00 0.00 0.01 0.03 0.06 0.15 0.15 0.25 0.28 0.33 0.33 0.34 0.32 0.29 0.29 0.33 0.39 0.39 0.49 0.56 0.60 0.60 0.51
0.00 0.00 0.00 0.00 0.00 0.00 0.00 0.00 0.00 0.00 0.00 0.00 0.00 0.00 0.00 0.00 0.00 0.00 0.00 0.00 0.00 0.00 0.00 0.01 0.01 0.01 0.01 0.02 0.02 0.02 0.01 0.00 0.00 0.00 0.00 0.00 0.02 0.02 0.02 0.03 0.03 0.03 0.03 0.02 0.02 0.02 0.02 0.02 0.02 0.02 0.01 0.00 0.00 0.00 0.00 0.00 0.00 0.00 0.00 0.00 0.00 0.00 0.00 0.00 0.00 0.00 0.01 0.02 0.08 0.08 0.19 0.23 0.31 0.31 0.35 0.36 0.32 0.32 0.35 0.40 0.40 0.49 0.52 0.50 0.50 0.48
0.00 0.00 0.00 0.00 0.00 0.00 0.00 0.00 0.00 0.00 0.00 0.00 0.00 0.00 0.00 0.00 0.00 0.00 0.00 0.00 0.00 0.00 0.00 0.01 0.01 0.01 0.01 0.01 0.02 0.02 0.00 0.00 0.00 0.00 0.00 0.00 0.02 0.02 0.03 0.03 0.03 0.03 0.03 0.02 0.02 0.03 0.03 0.02 0.02 0.02 0.02 0.01 0.00 0.00 0.00 0.00 0.00 0.00 0.00 0.00 0.00 0.00 0.00 0.00 0.00 0.00 0.00 0.01 0.04 0.04 0.12 0.17 0.27 0.27 0.31 0.38 0.38 0.38 0.40 0.40 0.40 0.42 0.48 0.49 0.49 0.45
0.00 0.00 0.00 0.00 0.00 0.00 0.00 0.00 0.00 0.00 0.00 0.00 0.00 0.00 0.00 0.00 0.00 0.00 0.00 0.00 0.00 0.00 0.00 0.00 0.00 0.01 0.01 0.01 0.01 0.01 0.00 0.00 0.00 0.00 0.00 0.01 0.02 0.02 0.03 0.02 0.02 0.02 0.03 0.04 0.04 0.04 0.04 0.02 0.02 0.02 0.02 0.02 0.02 0.02 0.00 0.00 0.00 0.01 0.00 0.00 0.00 0.00 0.00 0.00 0.00 0.00 0.00 0.00 0.00 0.00 0.01 0.03 0.10 0.10 0.21 0.25 0.35 0.35 0.37 0.43 0.43 0.46 0.52 0.49 0.49 0.46
0.00 0.00 0.00 0.00 0.00 0.00 0.00 0.00 0.00 0.00 0.00 0.00 0.00 0.00 0.00 0.00 0.00 0.00 0.00 0.00 0.00 0.00 0.00 0.00 0.00 0.00 0.01 0.01 0.01 0.01 0.01 0.00 0.00 0.00 0.00 0.01 0.01 0.01 0.02 0.03 0.03 0.02 0.02 0.04 0.04 0.05 0.04 0.04 0.04 0.04 0.03 0.03 0.03 0.03 0.02 0.01 0.01 0.00 0.00 0.00 0.00 0.00 0.00 0.00 0.00 0.00 0.00 0.00 0.00 0.00 0.01 0.01 0.05 0.05 0.14 0.17 0.27 0.27 0.31 0.40 0.40 0.49 0.54 0.51 0.51 0.52
0.00 0.00 0.00 0.00 0.00 0.00 0.00 0.00 0.00 0.00 0.00 0.00 0.00 0.00 0.00 0.00 0.00 0.00 0.00 0.00 0.00 0.00 0.00 0.00 0.00 0.00 0.00 0.01 0.01 0.01 0.01 0.01 0.01 0.01 0.01 0.02 0.02 0.02 0.03 0.03 0.03 0.02 0.03 0.04 0.04 0.05 0.05 0.05 0.05 0.09 0.06 0.04 0.02 0.02 0.01 0.01 0.01 0.00 0.00 0.00 0.00 0.00 0.00 0.00 0.00 0.00 0.00 0.00 0.00 0.00 0.00 0.00 0.00 0.00 0.02 0.03 0.11 0.11 0.16 0.26 0.26 0.36 0.45 0.54 0.54 0.50
0.00 0.00 0.00 0.00 0.00 0.00 0.00 0.00 0.00 0.00 0.00 0.00 0.00 0.00 0.00 0.00 0.00 0.00 0.00 0.00 0.00 0.00 0.00 0.00 0.00 0.00 0.00 0.00 0.00 0.00 0.00 0.01 0.01 0.01 0.01 0.01 0.02 0.02 0.03 0.04 0.04 0.03 0.03 0.07 0.07 0.09 0.11 0.11 0.11 0.11 0.11 0.07 0.03 0.03 0.01 0.00 0.00 0.00 0.00 0.00 0.00 0.00 0.00 0.00 0.00 0.00 0.00 0.00 0.00 0.00 0.00 0.00 0.00 0.00 0.01 0.01 0.06 0.06 0.09 0.20 0.20 0.33 0.40 0.51 0.51 0.50
0.01 0.00 0.00 0.00 0.00 0.00 0.00 0.00 0.00 0.00 0.00 0.00 0.00 0.00 0.00 0.00 0.00 0.00 0.00 0.00 0.00 0.00 0.00 0.00 0.00 0.00 0.00 0.00 0.00 0.00 0.01 0.01 0.01 0.01 0.01 0.01 0.02 0.02 0.03 0.06 0.06 0.07 0.06 0.06 0.06 0.07 0.10 0.12 0.12 0.06 0.05 0.05 0.04 0.04 0.02 0.01 0.01 0.01 0.01 0.01 0.01 0.01 0.00 0.00 0.00 0.00 0.00 0.00 0.00 0.00 0.00 0.00 0.00 0.00 0.00 0.00 0.03 0.03 0.00 0.05 0.05 0.13 0.17 0.31 0.31 0.46
0.01 0.01 0.01 0.00 0.00 0.00 0.00 0.00 0.00 0.00 0.00 0.01 0.01 0.01 0.00 0.00 0.00 0.00 0.00 0.00 0.00 0.00 0.00 0.00 0.00 0.00 0.00 0.01 0.01 0.01 0.01 0.01 0.01 0.01 0.01 0.01 0.02 0.02 0.04 0.01 0.01 0.03 0.04 0.02 0.02 0.02 0.04 0.05 0.05 0.05 0.04 0.04 0.04 0.04 0.03 0.02 0.02 0.02 0.03 0.02 0.02 0.01 0.00 0.00 0.00 0.00 0.00 0.00 0.00 0.00 0.00 0.00 0.00 0.00 0.00 0.00 0.00 0.00 0.00 0.02 0.02 0.07 0.12 0.23 0.23 0.36
0.01 0.01 0.00 0.01 0.01 0.00 0.00 0.00 0.00 0.00 0.01 0.01 0.01 0.01 0.01 0.01 0.01 0.01 0.01 0.01 0.01 0.00 0.00 0.00 0.00 0.00 0.01 0.01 0.00 0.00 0.00 0.00 0.00 0.00 0.01 0.00 0.00 0.00 0.01 0.01 0.01 0.01 0.02 0.02 0.02 0.03 0.03 0.05 0.05 0.05 0.05 0.04 0.08 0.08 0.07 0.04 0.04 0.03 0.02 0.03 0.03 0.01 0.01 0.00 0.00 0.00 0.00 0.00 0.00 0.00 0.00 0.00 0.00 0.00 0.00 0.00 0.00 0.00 0.00 0.00 0.00 0.04 0.08 0.08 0.08 0.16
0.01 0.01 0.01 0.00 0.00 0.00 0.00 0.00 0.01 0.01 0.01 0.01 0.01 0.01 0.01 0.00 0.00 0.00 0.00 0.00 0.00 0.00 0.00 0.00 0.00 0.00 0.01 0.01 0.01 0.01 0.00 0.00 0.00 0.00 0.00 0.00 0.00 0.00 0.00 0.01 0.01 0.01 0.01 0.02 0.02 0.06 0.04 0.04 0.04 0.05 0.05 0.06 0.08 0.08 0.07 0.05 0.05 0.03 0.02 0.01 0.01 0.02 0.01 0.00 0.00 0.00 0.00 0.00 0.00 0.00 0.00 0.00 0.00 0.00 0.00 0.00 0.00 0.00 0.00 0.00 0.00 0.00 0.00 0.03 0.03 0.10
0.01 0.01 0.01 0.00 0.00 0.00 0.00 0.00 0.01 0.01 0.00 0.00 0.00 0.00 0.00 0.00 0.00 0.00 0.00 0.00 0.00 0.00 0.00 0.00 0.00 0.00 0.02 0.01 0.01 0.01 0.01 0.00 0.00 0.00 0.00 0.00 0.00 0.00 0.01 0.01 0.01 0.02 0.03 0.05 0.05 0.06 0.06 0.05 0.05 0.03 0.04 0.06 0.06 0.06 0.06 0.05 0.05 0.03 0.01 0.01 0.01 0.02 0.02 0.02 0.02 0.01 0.01 0.00 0.00 0.00 0.00 0.00 0.00 0.00 0.00 0.00 0.00 0.00 0.00 0.00 0.00 0.00 0.00 0.00 0.00 0.05
0.00 0.00 0.00 0.00 0.00 0.00 0.00 0.00 0.00 0.00 0.00 0.00 0.00 0.00 0.00 0.00 0.00 0.00 0.00 0.00 0.00 0.02 0.01 0.01 0.01 0.02 0.05 0.03 0.02 0.02 0.01 0.00 0.00 0.00 0.00 0.00 0.00 0.00 0.01 0.01 0.01 0.01 0.03 0.05 0.05 0.04 0.05 0.04 0.04 0.02 0.02 0.03 0.05 0.05 0.07 0.07 0.07 0.04 0.02 0.01 0.01 0.01 0.02 0.01 0.01 0.01 0.01 0.00 0.00 0.00 0.00 0.00 0.00 0.00 0.00 0.00 0.00 0.00 0.01 0.01 0.01 0.00 0.00 0.00 0.00 0.00
0.00 0.00 0.00 0.00 0.00 0.00 0.00 0.00 0.00 0.00 0.00 0.00 0.00 0.00 0.00 0.00 0.00 0.00 0.01 0.01 0.01 0.02 0.02 0.04 0.04 0.06 0.04 0.03 0.02 0.02 0.01 0.00 0.00 0.00 0.00 0.00 0.00 0.00 0.00 0.01 0.01 0.01 0.01 0.02 0.02 0.02 0.02 0.04 0.04 0.06 0.06 0.05 0.04 0.04 0.05 0.05 0.05 0.04 0.02 0.01 0.01 0.02 0.01 0.01 0.01 0.01 0.01 0.01 0.00 0.00 0.00 0.00 0.01 0.01 0.01 0.01 0.01 0.01 0.00 0.00 0.00 0.01 0.00 0.00 0.00 0.00
0.01 0.01 0.01 0.01 0.01 0.01 0.01 0.01 0.01 0.01 0.01 0.01 0.00 0.00 0.00 0.01 0.01 0.01 0.01 0.01 0.01 0.02 0.02 0.02 0.02 0.10 0.08 0.06 0.05 0.05 0.03 0.02 0.01 0.01 0.00 0.00 0.00 0.00 0.00 0.01 0.01 0.01 0.01 0.02 0.02 0.05 0.05 0.05 0.05 0.03 0.05 0.05 0.06 0.06 0.04 0.04 0.04 0.03 0.02 0.02 0.02 0.02 0.02 0.01 0.01 0.01 0.00 0.01 0.01 0.01 0.00 0.00 0.01 0.01 0.01 0.02 0.01 0.01 0.00 0.00 0.00 0.00 0.00 0.00 0.00 0.00
0.01 0.01 0.01 0.01 0.01 0.01 0.01 0.01 0.02 0.02 0.02 0.02 0.01 0.01 0.01 0.02 0.02 0.02 0.02 0.02 0.02 0.08 0.08 0.09 0.09 0.07 0.06 0.04 0.03 0.03 0.02 0.01 0.01 0.01 0.00 0.00 0.00 0.00 0.00 0.02 0.02 0.03 0.04 0.04 0.04 0.02 0.01 0.02 0.02 0.03 0.03 0.06 0.07 0.07 0.05 0.03 0.03 0.02 0.02 0.02 0.02 0.02 0.02 0.01 0.01 0.00 0.00 0.01 0.00 0.00 0.01 0.01 0.03 0.03 0.02 0.04 0.02 0.02 0.01 0.00 0.00 0.00 0.00 0.00 0.00 0.00
0.01 0.01 0.01 0.02 0.02 0.02 0.02 0.01 0.02 0.02 0.03 0.03 0.02 0.02 0.02 0.02 0.04 0.04 0.06 0.06 0.06 0.05 0.05 0.06 0.06 0.06 0.04 0.03 0.02 0.02 0.04 0.03 0.02 0.02 0.01 0.02 0.02 0.02 0.02 0.01 0.01 0.01 0.02 0.02 0.02 0.03 0.03 0.02 0.02 0.02 0.02 0.05 0.05 0.05 0.04 0.02 0.02 0.02 0.02 0.02 0.02 0.03 0.02 0.01 0.01 0.01 0.00 0.00 0.00 0.00 0.01 0.01 0.02 0.02 0.03 0.04 0.03 0.03 0.01 0.01 0.01 0.00 0.00 0.00 0.00 0.00
0.01 0.02 0.02 0.02 0.02 0.03 0.02 0.02 0.02 0.02 0.02 0.03 0.03 0.03 0.01 0.01 0.01 0.01 0.02 0.03 0.03 0.07 0.07 0.07 0.07 0.11 0.11 0.09 0.07 0.07 0.04 0.05 0.05 0.05 0.04 0.01 0.01 0.01 0.01 0.01 0.01 0.02 0.02 0.03 0.03 0.04 0.04 0.03 0.03 0.03 0.02 0.03 0.05 0.05 0.04 0.02 0.02 0.02 0.02 0.03 0.03 0.02 0.03 0.02 0.02 0.01 0.00 0.00 0.01 0.01 0.01 0.01 0.03 0.03 0.06 0.06 0.04 0.04 0.02 0.02 0.02 0.00 0.00 0.00 0.00 0.00
0.01 0.01 0.00 0.01 0.01 0.01 0.01 0.01 0.01 0.01 0.01 0.01 0.01 0.01 0.01 0.02 0.01 0.01 0.02 0.02 0.02 0.04 0.06 0.08 0.08 0.04 0.04 0.04 0.03 0.03 0.01 0.01 0.02 0.02 0.01 0.01 0.01 0.01 0.01 0.02 0.02 0.03 0.03 0.04 0.04 0.05 0.06 0.05 0.05 0.02 0.02 0.01 0.00 0.00 0.03 0.05 0.05 0.03 0.03 0.02 0.02 0.02 0.02 0.02 0.02 0.01 0.00 0.00 0.01 0.01 0.02 0.02 0.03 0.03 0.05 0.07 0.08 0.08 0.06 0.04 0.04 0.01 0.00 0.00 0.00 0.00